Regional Weather Roundup
Issued by NWS

Home | Current Version | Previous Version | Graphics & Text | Print | Product List | Glossary On
Versions: 1 2 3 4 5 6 7 8 9 10 11 12 13 14 15 16 17 18 19 20 21 22 23 24 25 26 27 28 29 30 31 32 33 34 35 36 37 38 39 40 41 42 43 44 45 46 47 48 49 50
000
ASUS43 KBIS 061210
RWRND

NORTH DAKOTA REGIONAL WEATHER ROUNDUP
NATIONAL WEATHER SERVICE BISMARCK ND
700 AM CDT WED MAY 06 2015

NOTE: "FAIR" INDICATES FEW OR NO CLOUDS BELOW 12,000 FEET WITH NO
SIGNIFICANT WEATHER AND/OR OBSTRUCTIONS TO VISIBILITY.


NDZ001>003-009>011-017-061300-
NORTHWEST NORTH DAKOTA

CITY           SKY/WX    TMP DP  RH WIND       PRES   REMARKS
WILLISTON      MOCLDY    58  52  80 S12       29.69S
6HR MIN TEMP:  57; 6HR MAX TEMP:  62;

MINOT          CLOUDY    59  53  80 SE13G23   29.76S
MINOT AFB      CLOUDY    58  58 100 SE13      29.75F
$$

NDZ018>021-031>035-040>046-061300-
SOUTHWEST NORTH DAKOTA

CITY           SKY/WX    TMP DP  RH WIND       PRES   REMARKS
BISMARCK       MOCLDY    59  28  30 SE13      29.79F HAZE
6HR MIN TEMP:  58; 6HR MAX TEMP:  60; 6HR PCP: TRACE;

DICKINSON      LGT RAIN  56  53  90 S14       29.72F
GARRISON         N/A     58  56  93 SE16      29.77F
6HR MIN TEMP:  55; 6HR MAX TEMP:  58; 6HR PCP:  0.01;

HETTINGER ARPT CLOUDY    55  53  93 SE12      29.75S FOG
$$

NDZ004>008-012>016-024-026-027-054-061300-
NORTHEAST NORTH DAKOTA

CITY           SKY/WX    TMP DP  RH WIND       PRES   REMARKS
GRAND FORKS    CLOUDY    60  55  83 S12       29.91S
GRND FRKS AFB  CLOUDY    59  55  88 S16       29.90F
DEVILS LAKE    CLOUDY    57  52  82 SE13      29.86S
$$

NDZ022-023-025-028>030-036>039-047>053-061300-
SOUTHEAST NORTH DAKOTA

CITY           SKY/WX    TMP DP  RH WIND       PRES   REMARKS
FARGO          CLOUDY    59  55  87 SE15      29.93S
6HR MIN TEMP:  59; 6HR MAX TEMP:  64;

JAMESTOWN      CLOUDY    56  55  97 SE12      29.87S FOG
$$



USA.gov is the U.S. government's official web portal to all federal, state and local government web resources and services.